• în România
  • Lista ţărilor
  • Pe 7 zile
  • Temperatura apei
  • Hartă satelitară
  • Meteo pe hartă
  • Widget-uri
  • user-avatar
    Intrare

    Meteo pe oră la Ravda

    Astăzi, 18 Decembrie, Luni

    Timp Temperatura Precipitaţii Vânt Presiune Umiditate
    00:00 +2°C° 0 mm 7 m/s 760 mmHg 83%
    01:00 +2°C° 0 mm 7 m/s 760 mmHg 83%
    02:00 +1°C° 0 mm 6 m/s 761 mmHg 82%
    03:00 +1°C° 0 mm 6 m/s 762 mmHg 83%
    04:00 +1°C° 0 mm 5 m/s 762 mmHg 84%
    05:00 +1°C° 0 mm 4 m/s 762 mmHg 85%
    06:00 0°C° 0 mm 4 m/s 763 mmHg 86%
    07:00 0°C° 0 mm 4 m/s 763 mmHg 87%
    08:00 +1°C° 0 mm 3 m/s 764 mmHg 87%
    09:00 +2°C° 0 mm 3 m/s 764 mmHg 83%
    10:00 +3°C° 0 mm 3 m/s 764 mmHg 78%
    11:00 +5°C° 0 mm 2 m/s 764 mmHg 74%
    12:00 +5°C° 0 mm 2 m/s 764 mmHg 72%
    13:00 +6°C° 0 mm 2 m/s 764 mmHg 70%
    14:00 +6°C° 0 mm 2 m/s 764 mmHg 69%
    15:00 +5°C° 0 mm 3 m/s 764 mmHg 71%
    16:00 +4°C° 0 mm 3 m/s 764 mmHg 73%
    17:00 +4°C° 0 mm 3 m/s 764 mmHg 75%
    18:00 +4°C° 0 mm 3 m/s 764 mmHg 76%
    19:00 +4°C° 0 mm 3 m/s 764 mmHg 78%
    20:00 +3°C° 0 mm 3 m/s 764 mmHg 79%
    21:00 +3°C° 0,5 mm 4 m/s 764 mmHg 80%
    22:00 +2°C° 0,5 mm 5 m/s 764 mmHg 81%
    23:00 +2°C° 0,5 mm 5 m/s 764 mmHg 81%

    Mâine, 19 Decembrie, Marţi

    Timp Temperatura Precipitaţii Vânt Presiune Umiditate
    00:00 +2°C° 0,5 mm 6 m/s 764 mmHg 83%
    01:00 +2°C° 0,5 mm 7 m/s 764 mmHg 85%
    02:00 0°C° 0,5 mm 7 m/s 764 mmHg 86%
    03:00 0°C° 1 mm 7 m/s 764 mmHg 88%
    04:00 -1°C° 1 mm 8 m/s 765 mmHg 90%
    05:00 -1°C° 1 mm 8 m/s 765 mmHg 91%
    06:00 -1°C° 1 mm 8 m/s 765 mmHg 92%
    07:00 -1°C° 1 mm 8 m/s 766 mmHg 93%
    08:00 -2°C° 1 mm 8 m/s 766 mmHg 93%
    09:00 -2°C° 0,6 mm 8 m/s 767 mmHg 93%
    10:00 -2°C° 0,6 mm 7 m/s 767 mmHg 93%
    11:00 -2°C° 0,6 mm 7 m/s 768 mmHg 93%
    12:00 -1°C° 0,6 mm 7 m/s 768 mmHg 94%
    13:00 -1°C° 0,6 mm 6 m/s 768 mmHg 94%
    14:00 0°C° 0,6 mm 5 m/s 769 mmHg 94%
    15:00 0°C° 0,2 mm 5 m/s 769 mmHg 94%
    16:00 -1°C° 0,2 mm 5 m/s 770 mmHg 94%
    17:00 -1°C° 0,2 mm 4 m/s 770 mmHg 94%
    18:00 -1°C° 0 mm 4 m/s 770 mmHg 94%
    19:00 0°C° 0 mm 3 m/s 770 mmHg 94%
    20:00 -1°C° 0 mm 3 m/s 771 mmHg 94%
    21:00 -1°C° 0,1 mm 3 m/s 771 mmHg 94%
    22:00 -1°C° 0,1 mm 3 m/s 771 mmHg 93%
    23:00 -1°C° 0,1 mm 3 m/s 771 mmHg 93%

    Poimâine, 20 Decembrie, Miercuri

    Timp Temperatura Precipitaţii Vânt Presiune Umiditate
    00:00 -1°C° 0 mm 3 m/s 771 mmHg 93%
    01:00 -1°C° 0 mm 3 m/s 771 mmHg 93%
    02:00 -1°C° 0 mm 2 m/s 772 mmHg 93%
    03:00 -2°C° 0 mm 3 m/s 771 mmHg 93%
    04:00 -2°C° 0 mm 3 m/s 771 mmHg 92%
    05:00 -4°C° 0 mm 3 m/s 771 mmHg 92%
    06:00 -4°C° 0 mm 3 m/s 772 mmHg 92%
    07:00 -4°C° 0 mm 3 m/s 772 mmHg 91%
    08:00 -5°C° 0 mm 3 m/s 772 mmHg 90%
    09:00 -2°C° 0 mm 3 m/s 772 mmHg 87%
    10:00 -1°C° 0 mm 3 m/s 773 mmHg 84%
    11:00 0°C° 0 mm 3 m/s 773 mmHg 81%
    12:00 0°C° 0 mm 3 m/s 773 mmHg 82%
    13:00 +1°C° 0 mm 3 m/s 772 mmHg 82%
    14:00 +1°C° 0 mm 3 m/s 772 mmHg 83%
    15:00 0°C° 0 mm 3 m/s 772 mmHg 85%
    16:00 -1°C° 0 mm 2 m/s 772 mmHg 86%
    17:00 -2°C° 0 mm 2 m/s 772 mmHg 88%
    18:00 -2°C° 0 mm 2 m/s 773 mmHg 87%
    19:00 -3°C° 0 mm 2 m/s 773 mmHg 87%
    20:00 -3°C° 0 mm 2 m/s 773 mmHg 87%
    21:00 -3°C° 0 mm 2 m/s 773 mmHg 87%
    22:00 -4°C° 0 mm 3 m/s 773 mmHg 87%
    23:00 -4°C° 0 mm 3 m/s 773 mmHg 87%

    21 Decembrie, Joi

    Timp Temperatura Precipitaţii Vânt Presiune Umiditate
    00:00 -4°C° 0 mm 3 m/s 773 mmHg 86%
    01:00 -4°C° 0 mm 3 m/s 773 mmHg 86%
    02:00 -4°C° 0 mm 3 m/s 773 mmHg 85%
    03:00 -4°C° 0 mm 3 m/s 773 mmHg 85%
    04:00 -4°C° 0 mm 3 m/s 773 mmHg 85%
    05:00 -4°C° 0 mm 3 m/s 773 mmHg 84%
    06:00 -4°C° 0 mm 3 m/s 773 mmHg 84%
    07:00 -4°C° 0 mm 3 m/s 773 mmHg 83%
    08:00 -4°C° 0 mm 3 m/s 773 mmHg 83%
    09:00 -2°C° 0 mm 3 m/s 773 mmHg 81%
    10:00 -2°C° 0 mm 4 m/s 773 mmHg 78%
    11:00 -1°C° 0 mm 4 m/s 773 mmHg 76%
    12:00 -1°C° 0 mm 4 m/s 773 mmHg 77%
    13:00 0°C° 0 mm 4 m/s 773 mmHg 79%
    14:00 +1°C° 0 mm 3 m/s 772 mmHg 80%
    15:00 -1°C° 0 mm 4 m/s 772 mmHg 81%
    16:00 -1°C° 0 mm 4 m/s 772 mmHg 83%
    17:00 -2°C° 0 mm 4 m/s 771 mmHg 84%
    18:00 -2°C° 0 mm 4 m/s 772 mmHg 84%
    19:00 -2°C° 0 mm 4 m/s 772 mmHg 84%
    20:00 -2°C° 0 mm 4 m/s 772 mmHg 84%
    21:00 -2°C° 0 mm 4 m/s 772 mmHg 85%
    22:00 -3°C° 0 mm 4 m/s 772 mmHg 85%
    23:00 -3°C° 0 mm 4 m/s 771 mmHg 85%

    22 Decembrie, Vineri

    Timp Temperatura Precipitaţii Vânt Presiune Umiditate
    00:00 -3°C° 0 mm 4 m/s 771 mmHg 85%
    01:00 -3°C° 0 mm 4 m/s 771 mmHg 85%
    02:00 -4°C° 0 mm 4 m/s 771 mmHg 85%
    03:00 -4°C° 0 mm 4 m/s 770 mmHg 84%
    04:00 -4°C° 0 mm 4 m/s 770 mmHg 84%
    05:00 -4°C° 0 mm 3 m/s 770 mmHg 83%
    06:00 -4°C° 0 mm 3 m/s 770 mmHg 83%
    07:00 -5°C° 0 mm 3 m/s 770 mmHg 82%
    08:00 -5°C° 0 mm 3 m/s 770 mmHg 82%
    09:00 -2°C° 0 mm 3 m/s 770 mmHg 78%
    10:00 -1°C° 0 mm 3 m/s 770 mmHg 75%
    11:00 0°C° 0 mm 3 m/s 770 mmHg 71%
    12:00 +1°C° 0 mm 3 m/s 769 mmHg 72%
    13:00 +1°C° 0 mm 3 m/s 769 mmHg 72%
    14:00 +2°C° 0 mm 3 m/s 768 mmHg 72%
    15:00 +1°C° 0 mm 3 m/s 768 mmHg 74%
    16:00 +1°C° 0 mm 2 m/s 767 mmHg 76%
    17:00 -1°C° 0 mm 2 m/s 767 mmHg 78%
    18:00 -1°C° 0 mm 2 m/s 767 mmHg 78%
    19:00 -2°C° 0 mm 2 m/s 767 mmHg 77%
    20:00 -2°C° 0 mm 2 m/s 767 mmHg 76%
    21:00 -2°C° 0 mm 2 m/s 766 mmHg 76%
    22:00 -2°C° 0 mm 2 m/s 766 mmHg 76%
    23:00 -2°C° 0 mm 2 m/s 765 mmHg 76%

    23 Decembrie, Sâmbătă

    Timp Temperatura Precipitaţii Vânt Presiune Umiditate
    00:00 -2°C° 0 mm 3 m/s 765 mmHg 76%
    01:00 -2°C° 0 mm 3 m/s 764 mmHg 77%
    02:00 -2°C° 0 mm 3 m/s 763 mmHg 78%
    03:00 -2°C° 0 mm 3 m/s 763 mmHg 80%
    04:00 -2°C° 0 mm 3 m/s 762 mmHg 82%
    05:00 -2°C° 0 mm 3 m/s 761 mmHg 84%
    06:00 -1°C° 0 mm 3 m/s 761 mmHg 85%
    07:00 -1°C° 0 mm 3 m/s 761 mmHg 87%
    08:00 -1°C° 0 mm 3 m/s 760 mmHg 88%
    09:00 -1°C° 0 mm 4 m/s 760 mmHg 87%
    10:00 0°C° 0 mm 4 m/s 759 mmHg 86%
    11:00 0°C° 0 mm 5 m/s 759 mmHg 86%
    12:00 0°C° 0 mm 5 m/s 758 mmHg 86%
    13:00 +1°C° 0 mm 5 m/s 758 mmHg 86%
    14:00 +1°C° 0 mm 5 m/s 757 mmHg 86%
    15:00 -1°C° 0,1 mm 6 m/s 758 mmHg 87%
    16:00 -1°C° 0,1 mm 6 m/s 758 mmHg 88%
    17:00 -2°C° 0,1 mm 7 m/s 758 mmHg 88%
    18:00 -2°C° 0,1 mm 7 m/s 758 mmHg 88%
    19:00 -2°C° 0,1 mm 7 m/s 759 mmHg 88%
    20:00 -4°C° 0,1 mm 8 m/s 759 mmHg 88%
    21:00 -2°C° 0,3 mm 8 m/s 760 mmHg 89%
    22:00 -2°C° 0,3 mm 8 m/s 760 mmHg 89%
    23:00 -2°C° 0,3 mm 8 m/s 761 mmHg 90%
    Arată mai mult